DECAYED
Showing default

TROPICS-07, 56754 (Decayed)

Orbit data source: Space-Track

TROPICS-07, 56754 was a payload satellite owned by MIT-LL (US) in LEO that was launched on Fri, 26 May 2023 UTC via an ELECTRON launch vehicle from the Rocket Lab Launch Complex (RLLC). Payload-class satellites include a variety of spacecraft equipped with specific instruments for various scientific and technological missions. These include communications satellites like Starlink; space stations such as the ISS; scientific satellites like the Hubble; Earth observation satellites from companies like Planet Labs, Umbra, and HawkEye 360; GPS; miniature CubeSats for education and research; and military/defense satellites.

Not visible in the next 10 days
Identifier
56754, 2023-073C
Orbit
Decayed
Country
Flag of USUS
Related business
Manufacturer
Blue Canyon
Mission
Decayed Amateur Earth Obs Sci
Bus & Motor
CUBESAT 3U, Unknown motor
Mass
4 kg wet, ~4 kg dry
Launch date (UTC)
2023-05-26 (3 years ago)
Launch vehicle
ELECTRON
Launch site
Rocket Lab Launch Complex (RLLC)
Object type
Payload
Rocket body
Debris
Shape & HBR
Box, 0.3 m
Radar Cross Section
0.035 m², Medium (>0.1 m² and < 1m²)

Expand to show TLE details & history
Last TLE update: 10 months ago

TLE from 10 months ago
0 TROPICS-07
1 56754U 23073C   25247.97064130  .08037933 -16154-5  15177-2 0  9991
2 56754  32.7099 167.8180 0008011 253.3100 106.6726 16.30778852127649
Epoch: 2025-09-04T23:17Z
TLE epoch observation values (Epoch: 2025-09-04T23:17:43.408Z)
Latitude
0.00002°
Longitude
-165.93837°
Altitude
190.57 km
Speed
7.794 km/s
True Right ascension
11h 11m 16s
True Declination
0° 00' 00"
Sunlit
Object was in daylight at epoch
Visualization orbit readout
Latitude
Unknown
Longitude
Unknown
Altitude
Unknown
Speed
Unknown
Apparent Right ascension
Unknown
Apparent Declination
Unknown
Sunlit
N/A
Visualization observer readout
Local Sidereal Time
21:25:47
Azimuth
Unknown
Elevation
Unknown
Doppler factor
Unknown
Orbital elements
Apogee altitude
199.486 km
Perigee altitude
188.956 km
Semi-major axis
6,572.358 km
Eccentricity
0.0008
Inclination
32.7099°
RAAN
167.818°
Arg. of periapsis
253.31°
True anomaly
106.76051°
Mean anomaly
106.6726°
Eccentric anomaly
106.71656°
Mean motion
4.07344 °/min
Orbital period
88.38 mins
BSTAR
0.0015177
Loading maneuver chart data...
Computing Atmospheric mass density...
Loading historical data...
Loading historical data...
Loading historical data...
Loading historical data...
Loading historical data...
Loading historical data...
Loading historical data...
Other satellites on launch #73 in the year 2023 (2023-05-26 UTC)

Documentation

Showing up to 5 results
|